Theta_e
312 312 312 312 312 312 312 312 311 312 311 310 307 305 304 303 300 300 299 298 298 297 297 297 297 298 297 298 297 297 298 298 299 299 298 297 297 297 297 296 296 295 296 294 295 294 294 293 293 293 292 291 291 292 292 292 292 293 294 293 292 293 292 291 289 289 292 294 294 294 296 296 295 296 295 296 296 297 299 297 297 297 297 297 298
310 311 311 311 311 310 310 310 310 310 309 307 305 304 302 301 300 298 297 297 297 296 296 296 296 296 296 296 296 296 297 297 297 298 298 297 297 298 296 295 295 294 294 293 293 294 293 292 292 292 292 290 290 291 291 291 292 291 291 293 291 292 293 291 290 290 289 292 293 295 295 296 294 296 295 295 295 297 296 296 297 297 297 297 297
309 310 310 310 309 309 309 308 308 307 305 304 302 301 300 299 298 296 296 295 296 295 295 295 295 295 295 295 295 295 296 296 297 297 297 297 296 296 296 295 294 294 293 293 293 293 292 292 291 291 292 290 290 290 291 291 292 291 291 292 292 292 292 292 291 289 289 290 293 292 293 294 293 294 295 296 297 296 295 296 296 297 298 298 297
309 309 309 309 309 308 306 305 304 304 302 302 300 299 298 297 298 296 295 295 294 295 294 294 294 294 294 294 294 294 295 295 296 296 297 296 296 295 295 294 294 294 293 293 293 292 291 291 290 290 290 289 289 289 290 290 290 291 291 291 292 292 292 293 292 290 290 289 291 292 293 293 293 295 295 296 295 295 295 296 297 296 297 297 297
307 307 308 307 307 306 304 303 302 301 301 300 298 298 297 296 297 295 294 294 294 294 294 294 293 293 293 293 293 293 293 294 295 296 296 296 296 295 295 295 294 294 294 294 298 292 293 290 291 290 289 289 290 289 289 289 290 291 290 291 291 292 293 292 292 291 290 289 290 292 293 293 294 294 295 293 294 294 295 295 296 296 296 297 297
306 305 306 305 304 303 303 302 301 301 300 299 298 297 297 296 295 295 294 293 293 293 293 293 294 292 292 292 292 292 292 293 294 295 295 296 295 295 295 294 294 294 293 293 293 293 292 292 292 291 290 289 289 289 289 289 289 289 289 290 290 291 291 291 292 291 291 290 290 290 292 291 291 292 293 294 293 293 293 295 295 296 296 295 296
305 304 304 304 303 303 302 301 301 301 300 299 298 297 296 295 295 294 294 293 292 292 292 292 293 292 292 292 292 292 292 292 292 293 294 294 294 294 294 293 293 293 292 293 293 292 292 293 293 292 291 291 290 290 290 289 290 289 292 290 290 290 290 290 291 290 290 289 290 290 290 292 291 290 293 294 294 294 292 292 293 295 296 295 294
304 304 303 303 302 302 302 301 300 300 299 298 297 296 296 295 295 295 294 292 292 291 291 292 292 292 292 292 292 293 292 292 291 292 293 294 295 293 293 293 293 292 292 292 293 292 292 292 292 292 292 293 293 291 290 290 290 290 290 290 290 289 289 290 290 290 289 289 289 289 290 290 290 291 293 292 292 292 293 292 291 292 293 295 295
304 303 303 302 301 301 301 301 301 301 299 298 297 296 296 295 295 295 294 293 294 291 291 291 291 290 290 291 291 292 292 292 292 291 292 292 292 294 293 293 293 292 291 291 291 290 290 290 292 293 299 300 301 299 297 296 292 290 290 289 290 290 289 289 289 289 289 288 288 289 289 289 289 289 289 289 290 290 292 293 292 293 294 294 294
303 303 302 301 301 301 301 301 300 299 299 298 297 296 296 295 294 293 292 292 291 291 290 291 290 290 290 290 290 292 292 292 296 297 298 293 291 293 294 292 292 292 291 291 290 291 290 289 295 300 300 300 300 297 295 295 295 293 291 290 289 288 288 288 288 288 288 288 288 288 287 287 288 289 289 290 292 293 292 292 291 292 293 293 294
303 302 301 301 301 301 301 300 299 299 298 298 297 296 295 294 292 292 291 291 291 292 290 289 289 289 290 290 290 291 291 292 294 292 294 296 294 293 294 292 292 291 290 290 290 293 290 289 289 295 298 296 297 296 294 294 293 293 294 295 295 290 288 288 288 288 288 288 288 288 287 287 288 289 289 290 291 292 291 292 291 292 291 290 288
303 302 302 301 301 301 300 300 299 299 298 297 296 295 293 292 291 290 290 290 290 290 289 288 289 289 289 289 289 290 290 295 292 293 294 295 297 295 294 294 292 291 290 289 291 291 289 289 290 291 292 294 295 292 293 294 293 293 293 293 292 293 293 290 289 288 288 287 287 287 287 287 287 289 289 290 290 291 291 291 291 291 291 290 290
302 302 301 301 301 300 299 299 299 298 298 297 295 293 292 291 290 290 289 290 289 288 288 288 288 288 289 289 289 289 289 293 292 293 293 293 294 295 294 293 293 291 290 290 289 289 289 290 291 292 290 297 297 291 290 290 293 293 293 293 293 293 291 290 292 292 290 288 287 287 287 288 287 289 291 291 291 289 290 291 291 292 292 291 291
303 302 301 300 300 300 299 298 298 298 297 296 295 293 292 291 290 290 291 290 288 288 287 287 287 288 288 289 288 288 288 293 292 292 292 292 292 293 292 293 292 290 290 289 289 288 288 289 289 291 291 290 290 291 290 289 288 288 288 288 288 291 291 292 292 292 293 291 288 287 289 290 289 289 292 291 290 290 290 290 291 292 292 292 293
302 301 300 300 300 300 299 299 298 297 297 296 295 293 292 292 291 291 290 289 288 288 287 287 288 289 288 287 288 288 289 292 291 291 292 292 292 292 291 292 291 289 289 289 289 289 288 289 288 290 290 289 292 292 290 289 288 288 287 288 288 288 288 289 290 290 291 290 289 289 289 290 290 290 291 291 291 291 292 292 293 293 294 294 293
301 300 300 299 299 299 299 298 298 297 297 296 295 294 293 292 291 291 290 289 288 288 287 288 287 286 286 287 287 286 287 291 291 291 291 291 292 292 290 290 289 289 289 289 288 288 289 288 289 291 290 289 293 292 291 291 286 287 287 287 287 288 288 292 292 292 292 291 290 290 290 291 292 291 292 291 291 292 293 294 295 294 292 290 289
300 300 299 299 299 299 299 298 297 297 297 296 295 294 293 292 291 292 290 289 288 288 287 287 287 286 287 287 286 285 286 290 291 291 291 290 291 289 289 290 288 287 288 288 287 288 288 290 291 290 289 288 292 290 290 292 285 286 286 286 287 286 287 290 292 291 292 292 291 291 291 291 291 292 291 292 292 292 293 292 291 292 290 288 288
299 299 299 299 299 299 298 298 297 296 296 295 295 294 293 293 293 293 290 289 288 288 288 287 286 287 286 285 286 286 285 290 291 291 291 291 291 287 288 288 285 286 286 286 287 286 288 297 297 290 288 289 291 290 290 291 286 286 286 285 285 286 287 288 289 290 292 291 291 291 291 291 291 292 292 292 292 293 292 289 291 292 289 289 286
299 298 298 299 299 299 299 298 297 296 296 295 295 294 293 294 293 293 291 290 290 289 290 287 286 285 285 287 296 288 285 290 291 290 291 291 290 285 287 287 287 284 284 286 287 287 287 291 294 293 291 291 290 290 290 290 285 285 285 284 285 285 286 287 287 288 288 288 288 289 290 291 291 290 292 292 292 295 293 292 293 292 289 288 288
299 299 299 299 298 299 298 298 297 296 295 294 294 294 294 293 292 292 291 291 290 289 289 288 287 286 288 289 289 285 285 286 289 290 291 291 291 288 286 287 287 285 283 289 289 287 287 287 290 290 290 290 289 289 290 290 287 286 284 284 285 285 287 287 289 289 287 287 287 288 288 289 289 289 289 290 292 293 292 293 293 293 291 288 288
299 298 298 298 298 298 298 297 297 296 296 295 295 295 294 292 291 291 291 290 289 288 288 287 287 287 287 286 285 285 286 284 288 290 291 291 291 289 284 285 283 284 283 286 283 284 286 286 286 291 290 290 289 289 290 290 290 288 285 284 285 289 289 286 288 291 286 287 287 287 288 288 288 288 289 289 290 291 292 293 294 294 292 290 287
298 298 297 297 298 297 297 297 297 296 296 296 294 293 292 292 292 291 290 289 289 288 287 288 288 287 287 287 286 285 291 293 285 290 290 291 290 291 287 287 285 284 285 284 283 284 284 286 287 290 290 289 289 289 289 289 290 289 287 288 289 288 288 289 287 286 286 286 285 286 286 286 286 287 288 289 289 291 291 292 293 294 294 293 290
297 298 297 297 297 297 296 296 296 296 296 295 294 293 292 292 291 290 289 289 289 288 287 287 287 287 286 286 286 285 286 290 292 288 290 290 290 290 290 288 290 290 285 286 284 285 284 285 288 292 289 289 289 289 289 289 289 287 288 288 289 288 289 286 286 285 285 285 285 284 285 285 285 286 287 287 288 289 290 291 293 294 294 294 293
298 297 297 297 296 296 296 296 296 296 296 295 294 292 291 291 290 290 289 289 289 288 287 288 287 287 287 286 286 285 284 285 290 292 289 289 289 289 289 289 290 287 288 285 283 284 285 284 288 289 289 289 289 289 289 289 288 288 288 288 289 288 286 285 284 284 284 284 284 284 284 285 285 285 286 287 288 289 290 291 292 294 293 293 293
297 296 296 296 296 296 296 296 296 295 295 295 294 293 292 291 290 290 290 289 289 289 287 289 288 288 286 287 284 284 285 285 282 287 290 290 289 289 289 289 289 289 286 285 288 286 289 289 289 289 289 289 289 289 289 289 288 288 288 288 290 284 284 283 283 283 283 283 283 283 284 285 285 285 286 287 288 289 290 291 292 293 293 293 293
296 297 297 296 296 297 296 295 295 294 294 294 294 293 293 292 291 290 290 290 289 289 288 288 288 288 286 285 284 285 284 282 282 281 290 291 290 289 289 289 291 291 290 286 289 289 289 289 289 289 289 289 286 285 284 287 288 288 288 289 283 283 282 283 283 282 282 282 283 283 283 284 285 285 286 287 287 288 288 289 290 291 291 291 291
297 296 296 296 296 296 295 294 293 293 293 293 294 294 293 293 292 291 290 290 289 289 289 289 289 288 287 286 286 285 284 282 281 281 281 281 282 286 284 286 290 290 286 285 288 287 289 290 287 287 288 288 287 288 287 287 286 285 284 283 283 282 284 282 283 282 282 282 282 283 283 284 285 285 285 285 286 287 288 288 289 289 290 290 289
297 296 296 296 296 296 295 292 293 292 292 293 293 292 293 293 292 292 291 291 290 289 289 289 289 290 289 287 286 286 284 282 281 282 282 283 283 281 282 286 282 282 284 284 285 286 285 288 286 284 284 284 284 283 283 283 282 283 283 283 283 283 286 288 287 282 282 282 282 282 283 284 283 284 284 285 285 286 287 288 288 288 289 289 288
297 296 296 296 295 295 295 294 293 293 292 292 293 293 293 292 292 292 292 292 292 292 291 291 291 291 290 288 286 286 285 283 284 285 285 287 284 284 284 283 283 282 288 289 286 284 282 282 282 282 281 281 281 282 283 282 283 283 282 283 283 282 282 282 282 282 282 282 282 282 282 282 283 283 283 284 284 285 286 287 288 288 289 289 287
297 296 295 295 295 294 294 293 293 293 292 291 290 286 287 291 292 293 292 292 292 292 292 292 293 291 290 289 289 288 286 285 287 287 288 288 289 288 289 289 288 287 288 288 287 281 280 280 280 279 280 279 279 278 279 280 282 282 282 284 282 282 282 282 282 282 282 282 281 282 282 282 282 282 282 283 283 284 285 286 286 287 287 287 286
295 295 295 295 294 294 294 293 293 292 291 290 290 289 287 286 287 288 290 292 291 291 291 292 292 291 292 289 288 289 289 288 287 288 288 289 289 288 288 288 288 288 288 283 280 279 280 279 278 278 278 279 277 279 277 279 278 280 281 281 281 281 282 282 282 281 281 281 282 282 282 281 281 281 281 282 282 283 284 285 286 287 287 286 286
295 295 295 295 294 294 295 293 292 291 290 290 290 289 288 288 287 287 287 289 291 291 291 290 290 290 290 291 290 287 287 288 288 289 289 289 288 288 288 288 288 288 288 288 282 278 278 279 277 277 278 278 278 277 278 279 279 280 279 280 281 280 281 281 282 280 281 281 281 281 282 281 281 281 281 282 282 282 283 283 283 284 286 287 286
295 295 296 295 295 294 294 293 291 291 290 289 289 289 289 288 288 286 286 286 287 289 290 290 290 290 290 289 290 289 289 288 289 289 289 289 288 287 288 288 288 289 288 282 279 279 277 280 280 281 280 278 280 280 280 281 280 280 280 280 280 281 282 281 280 280 280 281 281 281 281 281 281 281 281 282 281 281 282 282 283 283 285 285 285
296 296 296 296 295 294 294 292 291 290 290 289 289 289 289 289 288 288 287 286 287 287 287 286 287 289 289 290 290 289 289 289 289 289 288 288 288 287 288 286 288 288 288 283 278 281 280 280 280 282 281 281 280 279 279 280 280 280 280 280 281 281 281 280 280 281 280 281 281 281 281 281 281 280 281 281 281 282 282 282 282 282 282 283 284
297 293 290 293 296 295 294 292 291 290 289 289 288 288 288 288 288 289 289 288 288 288 287 287 285 286 287 288 288 287 287 289 289 289 288 287 288 288 288 284 283 283 282 281 281 282 282 283 282 282 283 282 282 280 281 282 281 281 281 282 281 281 280 281 280 280 280 281 281 281 281 281 281 281 280 280 280 281 281 281 282 281 281 282 283
298 296 295 295 295 294 293 292 291 290 289 289 289 288 288 287 288 288 289 289 289 288 287 288 286 287 288 287 286 285 285 287 288 288 288 287 287 287 284 282 281 281 281 282 281 281 281 282 281 282 282 282 283 281 281 281 282 282 282 281 281 281 281 280 280 280 280 280 280 280 281 281 281 280 280 281 281 280 280 281 281 281 282 282 282
297 297 296 296 295 294 293 292 292 291 288 287 286 286 287 287 288 288 287 287 286 287 287 286 285 286 287 286 289 287 287 287 288 288 288 288 288 285 285 284 283 283 282 284 283 282 282 283 282 282 283 283 283 283 283 282 284 283 284 281 281 281 281 280 279 279 278 278 279 280 279 279 280 280 278 278 280 281 281 281 281 281 282 282 282
298 297 297 297 296 296 295 293 292 288 288 288 287 287 286 286 287 287 286 285 285 284 283 283 286 285 286 286 292 287 285 288 288 288 288 288 284 282 284 283 283 283 284 284 284 283 283 284 282 283 284 283 283 283 282 283 282 282 283 283 279 280 284 281 280 278 276 277 278 278 278 279 278 278 278 278 279 279 280 280 280 280 281 282 281
298 293 291 291 291 296 296 293 291 291 290 289 288 287 286 285 285 285 285 285 284 284 283 283 284 283 284 283 284 288 287 285 283 285 285 284 284 283 283 284 283 283 283 284 284 283 284 284 284 283 283 283 283 283 283 283 282 283 282 280 280 279 278 277 279 279 277 278 278 277 276 277 277 278 277 277 279 279 279 279 280 279 279 280 280
296 294 291 290 292 293 294 292 291 291 289 289 289 288 287 286 286 286 285 285 284 284 283 284 283 284 284 284 283 285 284 285 284 285 285 284 285 284 283 284 284 284 284 284 284 284 283 284 284 283 283 283 284 284 283 283 284 282 281 278 279 280 280 279 278 278 279 279 277 278 277 278 277 277 277 277 278 278 278 279 279 279 279 279 280
296 295 290 289 291 294 293 292 291 291 291 289 289 289 288 287 287 286 286 285 285 285 285 285 285 286 286 286 287 287 287 286 286 285 285 286 285 284 284 284 284 284 284 284 284 284 284 284 284 283 284 284 284 284 284 283 282 282 281 280 278 279 279 279 278 278 279 278 278 278 278 277 277 276 278 279 282 280 278 278 279 279 280 279 279
296 294 293 292 292 293 293 292 292 290 290 289 289 289 289 287 287 287 286 286 285 285 285 286 286 287 287 289 288 288 287 286 286 285 286 285 285 285 285 284 284 284 284 284 284 284 284 284 284 284 284 284 284 284 282 283 282 282 282 281 281 281 280 281 280 279 278 279 279 279 278 278 278 278 278 283 277 277 278 278 278 278 279 279 279
295 295 294 293 293 293 293 292 292 292 290 290 290 288 289 289 288 287 287 286 286 286 286 286 287 287 287 287 288 287 286 286 285 286 285 285 285 285 285 285 285 285 284 285 285 284 284 284 285 285 285 286 286 286 285 286 285 283 282 282 281 282 282 282 280 280 279 278 279 280 279 278 278 277 277 277 276 276 276 277 278 278 278 278 278
295 295 294 294 294 294 293 293 292 291 291 290 289 289 289 289 289 289 288 288 287 287 287 287 288 287 287 286 285 286 286 286 286 286 286 286 286 286 286 286 285 284 283 284 284 284 284 284 285 286 285 285 286 285 285 286 285 284 284 283 282 282 282 282 282 282 281 280 280 280 280 279 279 277 278 279 276 277 278 277 277 278 278 278 278
296 295 295 294 294 294 294 292 293 291 290 289 289 290 289 290 289 288 288 288 288 287 287 288 288 287 286 285 285 286 286 287 287 286 286 286 286 287 287 286 285 285 284 284 284 284 284 284 285 285 286 286 286 285 285 286 285 285 286 286 285 285 286 285 285 284 282 280 281 281 280 280 280 279 279 279 277 277 278 277 277 279 278 278 278
297 296 295 295 294 294 294 293 290 291 290 290 290 291 290 290 290 289 288 288 288 288 288 288 287 286 286 286 285 285 286 286 286 287 287 286 286 287 287 286 285 285 285 285 285 285 285 285 285 285 286 287 287 286 286 286 285 285 285 285 286 287 288 287 285 281 281 281 282 282 281 280 280 280 281 280 278 277 277 277 276 277 277 277 277
297 297 296 295 294 293 293 293 291 290 292 291 291 291 290 290 290 289 288 289 288 288 288 287 286 285 285 285 285 285 286 286 286 286 286 287 287 287 287 286 286 285 286 286 285 285 286 285 285 285 286 287 287 287 287 286 286 285 285 285 285 286 286 285 284 284 284 283 282 281 281 281 282 281 282 280 279 279 279 279 278 278 278 277 277
297 296 296 294 294 293 293 292 291 289 290 290 290 290 289 289 289 289 288 288 288 287 287 287 286 286 285 285 285 285 285 285 285 285 285 286 286 287 286 286 286 286 286 285 286 286 285 285 285 285 285 286 286 287 287 287 286 286 285 285 285 286 286 284 285 285 284 284 282 283 283 283 282 282 281 280 280 280 280 282 280 279 278 278 278
296 296 295 294 294 293 291 291 291 291 291 291 289 289 289 288 288 288 288 288 287 287 287 287 286 285 284 285 285 285 284 284 283 284 284 285 286 286 286 286 286 286 286 286 286 286 286 286 286 286 286 286 287 287 287 287 287 287 286 286 286 284 284 283 283 286 284 284 283 282 282 282 282 282 282 281 281 280 279 279 278 279 279 278 278
296 296 295 294 293 293 292 291 291 292 291 290 290 290 289 288 288 287 287 287 286 286 287 286 285 286 286 285 284 284 284 284 285 285 286 286 286 286 286 286 285 286 285 286 286 287 286 286 286 286 286 286 286 287 287 287 287 287 287 287 285 284 284 283 282 283 284 283 284 283 284 283 283 282 282 282 281 280 280 281 281 280 279 280 280
294 295 295 294 294 293 293 292 291 291 291 290 290 289 289 288 288 288 287 287 287 287 287 286 286 286 285 286 285 285 285 285 285 286 285 286 286 286 286 285 286 286 285 285 286 286 287 286 286 286 286 286 286 286 286 286 286 287 286 286 285 284 284 283 285 283 283 283 285 284 283 283 283 283 283 282 281 280 282 282 282 281 280 280 280
Wind_Speed
8 7 7 8 8 8 7 7 7 6 7 7 8 8 9 8 8 7 6 6 6 7 7 7 7 8 8 8 8 7 7 7 6 7 8 8 8 7 6 7 7 5 5 5 4 6 7 8 7 6 5 5 5 4 4 4 4 5 4 5 5 5 4 5 7 10 9 6 8 10 12 12 12 12 14 13 13 12 11 9 10 10 10 9 11
8 8 7 7 8 7 7 6 6 6 8 8 9 9 9 9 8 7 8 4 6 8 8 6 6 8 8 8 7 7 7 7 6 7 9 8 7 6 6 6 6 5 4 6 6 6 6 7 6 5 4 4 3 4 4 4 4 4 5 5 5 6 4 3 5 7 12 10 9 9 9 9 10 10 12 14 15 13 13 12 9 9 9 9 9
6 7 7 7 7 6 7 6 7 8 9 8 9 9 9 8 7 9 7 6 6 6 6 7 7 8 8 7 7 7 7 6 5 7 7 8 7 6 5 5 6 5 6 6 6 5 6 5 4 3 3 4 4 3 3 4 3 4 5 4 5 6 6 4 4 7 9 11 10 10 10 10 10 12 12 11 12 12 14 13 12 9 8 10 9
6 7 7 8 7 7 7 6 8 8 9 8 10 8 8 7 7 9 7 6 8 6 6 6 7 8 8 7 7 6 6 6 6 6 7 7 7 7 5 5 5 5 5 5 5 5 4 4 3 3 3 4 4 5 4 4 4 5 5 5 5 6 6 6 6 5 6 10 10 10 10 10 10 11 10 10 11 12 11 11 11 12 10 9 9
7 6 8 9 7 7 7 6 8 8 9 8 9 9 8 8 7 8 8 8 6 6 6 5 7 7 7 7 6 6 5 6 7 6 5 6 7 6 6 5 5 5 5 4 4 3 3 3 2 2 3 5 5 5 5 5 5 4 5 5 5 6 6 6 7 6 7 10 11 9 9 9 9 10 10 11 12 11 10 11 11 13 11 9 8
6 7 7 8 7 8 7 7 8 8 9 9 9 8 8 8 7 6 8 9 6 6 6 5 6 7 6 5 6 5 5 5 6 6 6 5 5 5 5 5 5 5 4 3 2 2 2 1 1 1 3 4 4 4 4 5 4 5 5 6 6 5 7 7 7 7 8 9 10 12 9 10 10 8 10 11 11 12 12 11 10 9 11 12 9
6 7 7 8 7 7 7 7 7 8 8 8 8 8 8 7 8 8 6 7 7 7 6 7 5 6 5 5 5 5 5 5 6 5 5 5 5 5 5 5 5 4 3 2 1 1 1 0 1 2 3 3 3 3 4 5 4 5 5 6 6 6 7 7 7 8 8 9 9 9 10 9 9 12 11 10 10 10 13 14 16 13 9 10 14
7 7 7 7 7 7 6 7 8 8 8 8 8 8 8 7 8 7 7 7 7 6 6 7 5 5 5 5 4 4 5 5 5 5 5 5 5 5 5 5 5 4 3 2 1 1 1 2 3 3 3 2 3 3 3 5 5 7 6 5 6 6 7 7 7 8 8 8 9 10 9 11 10 8 10 11 11 10 8 11 15 18 18 13 9
8 8 8 8 7 6 6 6 7 8 8 8 8 8 8 7 7 7 6 6 6 6 5 5 7 6 5 5 4 4 5 4 3 4 6 4 4 5 4 4 4 4 3 2 2 2 3 3 3 4 5 9 10 6 5 3 4 6 8 5 6 6 6 7 7 7 7 8 9 8 9 11 10 12 12 12 13 14 14 13 14 13 14 15 12
9 8 8 7 7 7 7 7 8 8 9 9 8 8 8 7 7 7 6 6 6 5 5 4 5 6 6 4 4 5 4 3 3 5 6 5 4 4 4 4 4 4 3 2 1 2 3 3 4 9 10 10 9 10 12 12 9 4 5 5 5 5 6 7 7 7 7 9 9 10 11 10 12 12 12 12 13 13 14 14 15 14 14 15 11
8 8 8 7 7 7 8 8 8 9 8 8 8 8 8 7 7 7 7 6 6 5 4 6 5 4 5 5 5 5 4 3 4 7 9 9 6 5 5 4 3 3 3 2 1 1 2 3 4 5 6 7 7 10 12 13 13 13 13 11 7 3 4 6 7 6 7 8 9 9 9 11 12 12 11 12 12 14 14 14 14 14 14 16 18
10 9 9 9 9 9 8 8 9 8 8 9 8 8 8 8 7 7 7 7 5 5 5 4 4 4 5 6 6 5 4 4 8 10 9 9 8 6 5 5 3 3 3 2 0 0 1 3 3 3 4 5 5 6 9 12 12 13 12 11 12 12 9 5 5 7 7 8 9 10 10 10 12 12 12 12 13 14 13 13 13 14 16 14 14
10 9 9 10 9 9 8 9 9 9 9 9 8 8 8 8 7 7 7 5 5 6 4 4 4 4 6 7 5 4 4 5 10 11 10 10 9 7 6 5 5 4 2 2 1 0 1 3 4 5 4 9 7 5 6 7 10 12 11 10 11 12 13 14 11 6 5 6 7 10 10 11 12 12 13 14 13 14 14 14 14 13 13 14 14
11 10 9 9 9 9 9 9 9 9 9 9 8 8 8 7 6 6 6 5 6 5 4 5 4 5 5 6 5 4 4 5 10 10 10 10 9 8 5 6 4 3 2 1 1 2 3 3 4 6 7 6 5 5 6 6 6 6 7 7 7 9 11 12 12 13 9 6 6 9 12 10 11 13 14 13 13 14 14 15 16 15 15 15 16
9 10 9 8 9 9 9 8 8 8 8 9 9 8 8 7 7 6 6 7 6 6 6 5 4 5 5 5 6 4 3 5 9 10 10 10 10 8 5 4 3 2 1 0 3 3 3 4 4 5 5 6 5 5 6 6 6 6 6 7 7 7 7 7 8 7 8 7 7 8 10 10 11 13 13 11 11 11 12 15 17 16 15 14 12
11 10 10 9 10 10 10 9 9 8 8 8 9 8 8 8 8 6 5 5 4 4 4 4 5 5 4 5 6 5 3 6 9 9 9 9 9 6 5 4 3 2 1 1 3 2 2 3 4 5 5 6 7 11 8 5 4 5 7 7 7 8 7 7 11 12 10 9 8 9 9 12 15 15 15 14 11 11 12 12 12 12 14 13 13
11 11 10 10 10 10 10 11 11 10 10 10 9 8 8 7 6 5 7 6 5 4 4 4 4 5 5 5 6 4 4 5 8 8 8 7 7 6 4 5 3 3 1 1 2 3 3 4 4 4 4 5 8 11 11 7 4 6 6 7 7 7 8 8 12 14 14 15 16 16 17 18 19 20 20 21 16 14 12 13 14 14 15 15 12
11 12 11 11 10 10 10 10 11 9 9 10 9 8 7 6 7 6 8 7 5 4 4 4 3 4 5 5 4 5 4 5 7 7 7 6 5 5 5 6 3 2 1 2 2 3 3 6 6 3 4 6 10 10 9 5 4 5 5 7 8 8 9 9 8 9 13 14 15 16 17 17 19 19 19 20 20 16 12 14 16 14 14 13 14
12 12 12 11 12 11 9 10 10 10 9 8 9 9 8 8 6 6 6 6 5 4 4 5 3 2 3 4 6 6 4 4 5 6 6 6 4 3 5 5 4 2 2 2 3 3 4 5 7 6 5 7 11 10 9 5 4 4 4 5 7 8 9 9 9 10 11 11 12 12 12 14 13 12 13 20 21 17 12 12 13 14 14 13 13
9 9 10 10 9 9 10 10 9 10 9 8 7 8 7 7 7 7 5 6 6 5 4 4 4 3 2 2 3 4 4 2 2 5 6 6 5 3 2 6 4 1 2 2 5 5 4 5 6 9 11 12 11 11 10 8 4 4 3 5 6 9 9 8 8 9 9 9 10 10 11 11 12 12 12 13 14 14 14 13 13 13 13 13 14
11 10 10 10 10 9 8 9 10 8 9 9 8 7 7 8 7 7 6 5 5 5 4 4 4 3 1 1 3 2 2 4 1 4 5 5 6 5 3 4 3 2 1 1 2 3 6 6 6 7 11 11 10 10 9 10 7 3 4 4 4 7 8 7 10 11 8 9 9 10 10 11 12 12 12 12 13 13 13 14 13 12 12 13 14
10 11 11 10 9 8 8 7 9 8 7 8 8 7 6 7 7 7 6 6 6 5 4 4 4 3 1 1 1 1 1 4 2 2 5 5 5 4 4 1 2 2 0 1 1 2 3 5 5 8 11 10 9 8 9 9 9 4 6 8 11 12 8 6 6 7 8 8 8 9 10 11 11 12 13 13 13 14 13 13 13 12 11 11 13
10 10 11 12 10 9 8 9 8 7 8 8 9 8 7 7 6 6 7 6 6 5 4 4 4 4 2 1 1 1 0 0 2 2 3 5 4 3 2 2 2 1 0 1 3 4 4 4 6 8 9 9 8 8 8 9 7 6 10 11 11 12 8 6 6 7 8 8 8 9 10 10 11 12 13 13 14 14 13 13 13 13 12 12 12
12 12 11 11 10 8 8 8 9 8 9 8 8 8 7 6 6 6 6 6 6 6 4 4 4 4 5 4 2 2 2 1 1 2 2 4 4 3 2 2 2 1 1 2 3 4 5 4 5 9 8 7 7 7 8 8 6 10 11 11 11 9 6 7 7 7 7 8 9 10 10 10 10 11 12 12 12 13 14 14 15 15 14 12 11
12 11 11 10 10 9 8 8 8 8 8 9 9 8 7 7 7 6 7 6 6 6 6 5 6 6 4 5 4 3 3 1 1 1 2 3 3 2 2 3 2 1 0 2 1 3 5 8 8 6 5 6 6 6 6 7 10 10 10 11 8 6 7 6 7 7 8 8 8 8 9 10 10 10 11 11 12 11 13 14 14 14 14 13 10
11 11 11 10 11 10 10 8 8 9 9 8 9 8 9 8 8 7 7 7 6 7 6 6 5 5 6 4 6 5 3 2 3 2 2 1 1 3 4 4 3 2 3 3 5 6 6 6 4 6 6 5 3 3 3 4 9 9 10 8 5 6 6 6 7 7 8 8 8 9 9 9 10 11 11 11 11 11 12 13 14 15 15 15 14
12 11 11 10 10 10 11 9 8 8 8 7 7 7 7 7 7 7 7 7 7 7 6 6 6 5 6 6 5 4 4 4 4 3 3 2 3 2 2 1 2 3 1 2 4 3 4 5 4 4 3 4 3 3 3 5 5 6 6 6 6 6 5 4 5 5 6 7 8 8 8 9 9 10 12 11 12 12 11 11 12 13 14 14 13
13 12 12 10 9 10 10 12 11 8 8 8 8 7 7 8 8 9 9 9 8 7 7 7 7 7 7 6 5 4 5 4 5 5 6 5 4 3 2 1 1 2 4 4 4 3 2 3 2 2 4 5 6 5 5 4 3 4 6 6 6 5 6 6 5 5 5 5 6 7 8 9 10 10 10 11 11 12 12 12 12 13 13 13 14
12 12 11 10 10 9 9 9 9 9 8 7 8 9 10 9 8 7 7 8 9 9 8 8 8 8 8 8 7 7 6 6 8 8 6 7 5 4 2 1 2 2 3 4 3 2 3 3 4 4 4 3 4 5 5 6 6 5 4 6 6 6 6 6 7 7 7 7 8 8 8 9 9 9 9 10 11 11 11 12 12 12 13 12 12
11 11 10 10 9 9 8 8 8 8 8 8 7 2 5 2 6 9 8 8 11 13 13 10 10 8 8 8 9 10 9 10 9 9 9 7 7 6 4 3 3 4 4 3 1 1 1 1 1 1 3 3 3 3 4 4 5 6 6 5 5 6 6 6 6 6 7 6 6 7 8 8 9 9 10 10 11 10 11 10 11 11 12 13 14
10 8 9 9 10 9 8 8 8 7 7 8 7 8 6 2 6 3 3 8 12 12 13 14 14 14 12 8 7 7 5 3 6 9 9 8 6 5 3 4 5 5 2 1 0 0 1 2 2 2 2 3 3 3 3 4 4 4 6 6 5 5 6 6 6 6 7 7 7 7 7 7 8 8 9 9 10 10 11 11 10 11 11 11 12
10 8 7 7 9 9 8 8 7 8 7 7 8 8 7 7 1 5 6 1 9 13 14 12 13 15 15 12 10 6 7 8 8 9 8 7 6 5 4 5 7 5 4 5 1 3 1 2 4 4 3 3 5 4 3 4 5 3 4 5 6 5 5 6 6 5 6 6 7 7 7 8 8 8 8 8 9 9 10 10 10 11 12 11 12
11 10 10 10 9 9 8 8 7 8 8 8 8 7 8 7 8 3 3 7 6 1 5 10 13 15 14 11 14 13 11 10 10 9 7 7 6 5 5 6 6 4 5 3 3 4 2 3 4 5 4 5 6 4 5 5 5 5 3 4 6 5 5 5 4 4 5 5 6 6 7 7 7 8 8 8 8 9 9 10 10 10 10 12 12
14 12 11 11 11 9 8 8 8 7 7 7 7 7 7 7 7 7 6 4 3 4 5 5 0 8 9 9 11 8 7 8 9 8 8 7 6 5 3 1 2 3 4 3 3 4 4 3 4 5 6 6 6 5 5 6 5 5 5 4 5 5 5 4 4 5 5 6 5 6 6 7 7 7 9 8 8 7 9 9 9 9 9 9 10
9 9 13 11 9 9 8 8 8 7 7 7 8 8 7 7 8 8 8 8 7 7 6 4 2 4 7 6 5 4 5 5 7 8 7 6 5 4 3 0 1 2 1 0 2 3 4 6 6 6 6 7 7 5 6 6 5 5 5 6 5 5 5 4 4 4 5 5 6 6 6 6 6 6 6 7 8 9 9 9 9 8 8 9 9
10 8 7 9 8 6 7 8 7 7 7 7 7 7 6 7 7 7 7 8 8 7 5 6 5 6 7 4 6 6 5 5 6 7 7 6 5 4 2 6 4 5 4 4 5 6 5 6 5 7 6 7 7 6 6 7 6 5 5 4 5 5 5 4 5 4 4 5 5 5 6 6 6 6 7 7 8 7 7 8 8 8 8 7 7
11 11 9 8 7 6 6 6 6 7 6 6 5 6 6 6 6 6 6 7 7 7 7 5 3 1 2 4 6 7 7 6 6 7 7 6 6 4 6 6 7 5 5 7 6 4 5 7 6 6 6 7 7 7 6 6 6 5 5 5 5 4 6 4 5 4 4 5 5 5 4 6 6 5 4 6 7 8 8 8 9 9 9 10 9
10 10 9 8 8 8 6 5 6 7 7 6 6 6 6 6 7 6 7 7 7 7 6 5 6 7 8 8 7 7 4 4 4 3 3 3 3 4 6 6 5 6 7 7 6 6 6 7 6 6 7 6 7 7 7 7 7 6 6 6 4 5 6 5 5 4 3 4 5 5 4 5 5 5 5 5 6 7 8 8 7 9 10 11 8
8 12 15 13 9 9 9 8 7 7 6 6 6 7 7 7 6 6 6 6 6 6 6 6 7 7 8 6 5 5 6 3 4 7 6 6 6 6 6 6 6 7 7 7 7 6 7 7 7 6 6 6 7 7 7 7 6 6 6 5 6 6 6 6 6 6 4 6 6 5 4 5 4 5 4 4 6 6 6 7 7 7 8 9 8
9 7 9 12 9 10 9 9 9 8 8 8 7 6 6 7 7 7 7 6 6 6 6 7 7 8 7 5 4 6 7 7 7 6 6 6 7 7 6 7 7 8 7 7 7 7 7 8 7 7 7 7 7 7 7 7 7 7 5 5 5 7 7 6 6 6 7 7 5 6 4 5 4 4 4 4 5 5 5 6 6 6 6 6 8
9 9 9 8 9 7 6 6 7 8 7 7 6 7 7 8 7 7 7 7 6 6 6 7 8 8 6 8 11 11 8 8 8 7 7 8 8 7 7 7 7 7 7 7 7 7 7 7 7 7 7 7 7 7 7 7 7 6 7 7 5 6 7 6 6 7 7 6 6 6 6 6 4 3 6 5 4 5 4 4 5 6 6 6 6
10 8 8 7 9 9 10 10 8 8 7 7 7 7 7 7 7 6 7 7 7 7 6 6 7 7 6 10 10 12 8 7 7 6 6 7 7 8 7 7 7 7 7 7 7 7 7 7 7 7 7 7 7 7 7 7 7 8 7 7 7 7 7 7 7 5 6 7 6 6 6 6 5 4 5 5 5 4 5 5 5 5 6 6 7
12 11 11 10 9 9 9 9 9 9 7 7 6 6 6 6 6 6 6 6 6 6 6 7 8 7 7 8 9 10 7 7 6 7 7 7 7 7 7 8 8 8 8 7 7 7 7 7 7 7 7 8 8 7 8 8 7 8 8 7 7 7 7 7 6 6 6 5 7 7 6 6 6 6 6 5 4 3 4 4 5 5 5 5 5
10 10 10 9 9 9 9 8 7 8 8 9 9 8 8 7 6 6 7 7 7 7 7 8 8 7 7 5 5 7 7 8 7 8 8 8 8 8 8 8 8 7 7 7 7 7 7 7 8 8 7 7 7 7 7 7 7 7 8 8 7 8 7 7 7 7 7 6 7 7 7 6 6 5 6 6 4 4 5 4 4 5 5 5 5
10 10 9 9 8 8 8 7 8 8 9 7 6 7 7 8 8 7 7 7 7 7 7 8 8 7 7 6 6 8 8 8 8 7 8 8 9 9 9 8 8 8 7 7 7 6 6 7 7 7 8 7 7 7 7 8 7 7 7 8 8 8 8 9 8 7 6 5 7 7 7 7 7 7 7 7 4 4 5 4 4 4 4 4 5
10 9 9 9 8 7 7 7 6 7 7 7 7 8 7 8 7 7 8 8 8 8 8 8 8 8 7 7 7 7 7 7 7 8 8 7 7 8 8 8 7 7 7 7 6 5 7 7 7 7 8 8 8 7 7 7 7 7 7 7 8 9 9 8 6 5 6 6 7 7 7 6 7 7 7 7 6 4 5 5 3 3 3 3 4
11 10 9 8 8 7 7 7 6 6 6 7 7 7 7 8 8 7 7 10 9 8 8 8 7 7 7 7 7 7 7 7 8 7 8 9 8 8 8 7 6 6 7 7 6 7 7 7 7 7 8 8 7 8 8 7 7 7 7 7 7 8 8 8 7 7 7 7 7 6 7 7 7 7 8 7 6 6 5 6 5 5 4 3 4
10 9 9 8 7 6 6 6 6 6 6 6 7 7 8 7 7 7 7 8 8 8 8 7 7 7 7 7 7 7 7 7 7 6 6 6 7 8 7 7 7 7 6 6 7 7 7 7 7 6 7 8 8 8 8 8 7 7 7 7 7 9 11 9 6 7 7 7 6 7 7 7 7 7 7 6 7 7 7 8 6 5 5 5 5
9 9 8 8 7 7 6 6 6 6 7 7 7 7 7 7 7 7 7 8 8 7 7 8 8 7 7 7 6 6 6 5 6 6 7 7 7 7 7 7 6 6 6 7 8 7 7 7 7 7 7 8 8 8 8 8 9 8 8 8 10 14 14 13 9 9 9 7 6 6 5 6 7 8 7 7 7 7 7 6 6 7 7 5 5
9 9 8 8 8 7 6 6 7 7 7 6 7 7 8 7 7 7 7 7 7 7 7 6 7 6 7 6 6 6 6 7 7 7 7 7 7 7 7 7 7 7 7 7 8 7 7 7 7 7 8 7 8 8 8 8 8 9 8 10 14 14 13 13 13 13 10 7 8 7 7 7 7 7 7 7 7 6 7 8 7 7 6 7 7
8 8 7 7 6 6 6 6 6 6 6 7 7 8 8 8 8 7 7 7 7 7 7 7 7 6 6 6 6 6 7 7 7 6 6 7 7 7 7 7 7 7 7 7 7 8 8 7 7 8 8 8 8 8 7 8 8 8 11 15 15 14 14 11 10 12 14 10 7 7 7 8 8 8 8 8 7 7 9 9 8 7 7 7 7
Wind_Direction
110 110 114 114 116 117 117 114 114 112 110 110 110 109 105 101 100 105 99 91 99 89 87 83 81 81 77 73 75 75 78 74 72 85 91 95 92 94 92 89 91 86 84 72 63 63 61 60 52 44 39 44 32 20 16 6 360 347 338 340 332 322 328 313 302 301 303 302 305 311 315 318 321 326 323 323 324 327 323 318 316 317 315 315 313
119 118 114 115 116 111 104 103 106 108 110 109 106 105 105 102 105 96 88 77 89 93 87 85 82 83 81 77 77 79 78 75 76 88 100 100 97 98 99 94 92 89 83 76 63 59 58 59 47 40 37 49 29 22 5 357 354 347 340 335 317 314 313 299 295 298 304 312 312 308 306 314 311 319 323 323 323 323 324 321 319 316 315 311 310
120 120 118 115 110 106 107 108 111 110 107 105 104 104 101 99 99 97 94 87 71 78 88 88 87 86 83 79 81 79 78 80 78 94 101 105 106 104 103 103 99 94 82 74 69 63 59 56 47 36 27 33 20 4 360 350 342 339 325 319 315 307 306 299 293 298 301 306 308 312 315 320 318 319 320 316 311 314 315 321 322 316 312 311 309
123 120 117 112 113 111 107 109 106 106 104 107 106 104 101 96 98 94 92 88 85 73 78 88 87 86 87 82 81 85 83 84 85 90 106 110 111 109 107 102 99 94 91 81 73 69 70 58 38 32 27 34 10 3 355 349 344 335 323 317 311 305 299 301 295 282 295 303 311 312 313 315 314 312 311 306 310 314 313 309 309 314 310 309 303
118 117 122 119 117 115 113 110 109 105 107 108 106 105 103 102 98 102 99 87 85 90 79 80 86 84 88 92 90 84 87 93 95 94 98 110 114 114 110 105 97 91 89 94 90 92 76 76 41 31 36 32 8 4 346 343 333 326 317 308 305 298 301 300 298 295 295 300 302 303 304 302 302 306 308 313 316 311 310 309 315 313 310 302 300
119 119 122 121 120 117 117 113 109 110 111 110 111 110 108 105 101 95 102 99 90 83 89 80 88 91 90 91 91 91 88 90 95 103 107 108 105 103 104 102 98 92 90 92 113 108 112 83 352 8 33 31 356 341 338 328 320 318 312 307 304 305 305 304 300 300 298 296 303 308 312 314 315 310 311 315 313 314 315 312 305 307 312 315 307
122 120 122 121 122 123 125 121 115 114 115 116 113 109 107 106 103 101 96 99 100 95 88 91 82 93 92 90 90 97 94 90 96 100 103 102 105 103 98 92 85 87 88 108 105 113 119 316 340 337 338 331 332 328 326 326 318 306 300 302 305 310 309 306 308 306 305 305 305 301 307 310 313 315 318 312 307 311 316 321 322 321 313 315 317
124 123 125 123 124 126 124 119 115 117 119 117 113 110 108 104 102 102 100 98 98 100 104 101 94 88 89 89 89 94 95 91 93 96 96 106 106 102 107 101 92 83 85 62 38 10 336 323 317 328 308 295 311 305 322 321 317 314 310 309 308 310 307 308 309 309 309 310 308 313 315 314 316 307 309 318 318 317 325 324 322 323 323 320 309
127 128 128 127 128 125 121 116 116 121 120 117 115 112 109 108 106 105 104 101 96 94 96 99 103 93 80 84 86 81 83 80 89 108 110 97 105 111 108 106 106 103 82 52 21 9 350 336 321 307 348 351 343 339 332 303 298 309 313 317 309 309 307 305 307 309 310 311 312 313 316 319 318 323 327 330 329 325 323 323 313 307 309 308 309
129 131 130 128 126 125 124 120 120 123 123 120 120 117 114 112 109 106 101 98 96 93 90 88 92 101 99 88 79 75 70 62 62 82 94 112 104 108 109 114 115 117 107 74 24 4 340 338 324 346 345 335 334 338 340 337 334 296 273 289 292 299 298 304 310 314 315 318 319 319 322 319 322 323 322 317 316 316 319 320 316 313 312 311 286
131 133 130 131 130 127 125 125 125 124 125 122 122 119 116 114 111 107 102 98 97 96 94 94 92 93 97 95 81 72 63 62 101 106 104 113 114 121 131 129 120 118 127 124 99 348 337 327 322 323 332 331 328 332 334 337 336 333 331 329 323 299 296 311 310 315 319 318 312 320 316 317 317 320 316 317 319 323 319 317 315 315 317 321 320
138 137 137 136 134 132 130 127 122 124 127 127 125 121 118 116 114 112 108 103 99 97 95 100 104 102 95 85 79 75 67 73 99 95 101 113 123 130 135 129 124 143 150 153 183 325 307 319 320 316 317 318 325 335 331 334 333 331 331 333 336 336 331 317 312 317 320 317 320 316 318 315 317 316 317 321 322 319 316 314 314 313 312 313 313
138 138 142 139 136 133 131 128 128 132 135 131 127 124 122 120 119 117 113 114 108 104 113 109 101 98 94 89 81 72 76 84 98 95 95 98 104 114 121 130 144 168 171 178 209 262 290 333 338 332 318 330 333 329 336 327 326 327 331 338 335 333 328 324 319 306 290 306 308 314 316 317 316 314 315 316 316 313 317 316 314 309 307 308 309
147 145 141 139 137 135 132 129 130 136 135 131 129 128 127 126 124 119 114 108 109 110 109 105 103 94 97 97 94 83 74 77 90 92 91 91 96 101 119 132 148 164 170 214 284 289 297 316 334 325 325 330 324 337 334 327 325 332 334 334 331 324 327 324 324 324 326 313 308 307 307 313 307 306 308 312 317 317 318 314 313 309 310 309 307
135 140 141 140 135 129 123 123 127 131 134 135 134 133 131 128 127 127 125 127 125 126 125 114 106 101 101 105 97 80 67 87 91 92 92 94 95 97 104 109 106 91 61 306 258 271 286 292 296 297 307 318 316 347 336 327 327 330 333 331 328 324 318 321 327 327 322 317 308 298 301 306 303 304 306 310 309 307 309 308 308 305 300 300 292
148 144 143 145 141 139 137 136 132 137 141 138 136 138 140 142 137 134 117 105 100 100 96 103 107 105 104 104 97 90 76 84 90 91 94 97 99 99 103 106 105 88 37 337 329 310 288 294 304 310 313 310 321 342 341 323 327 343 338 327 327 325 319 312 318 324 321 317 312 309 306 308 310 311 311 313 313 312 310 304 304 306 313 317 316
150 147 147 149 149 147 145 144 144 148 148 147 148 149 145 141 135 131 120 126 126 127 132 118 121 116 112 106 107 106 86 83 89 91 92 101 103 101 105 101 95 83 15 320 318 337 330 303 296 309 313 313 328 340 334 338 344 347 341 330 322 323 322 327 331 324 324 322 321 320 319 319 319 317 316 318 321 321 318 320 322 322 323 323 317
153 152 151 149 147 150 151 148 146 149 150 152 151 149 147 142 144 144 137 141 142 152 133 117 114 120 121 124 127 116 97 79 89 90 94 97 111 120 120 112 96 68 348 326 318 304 292 320 334 326 324 317 329 335 337 343 350 339 345 334 330 334 328 334 329 326 327 328 326 326 323 323 322 319 319 323 326 329 334 328 322 322 322 321 320
160 157 155 153 149 150 153 151 149 150 151 151 148 147 153 154 147 138 140 142 148 146 131 119 117 115 133 140 121 109 101 76 84 95 102 110 110 115 121 111 95 40 1 331 320 333 330 334 337 332 324 326 338 342 344 350 346 343 337 334 337 333 329 325 325 331 335 336 333 334 331 329 325 325 327 329 330 333 333 323 321 327 328 324 319
154 147 145 143 143 151 154 151 151 151 149 145 144 144 145 138 143 143 146 144 145 146 136 136 140 161 175 120 108 113 107 88 87 108 110 113 119 116 126 106 106 73 5 7 341 337 340 333 331 331 333 340 343 341 343 3 359 343 350 356 337 332 320 322 325 331 327 331 325 328 325 324 327 330 333 333 330 333 335 331 330 329 326 322 320
149 146 143 142 144 154 158 153 151 150 149 149 146 140 144 144 143 144 147 145 138 138 140 147 144 166 179 119 114 104 123 119 94 109 110 114 121 117 108 113 144 111 62 350 334 316 321 320 315 316 332 339 339 340 349 358 2 358 357 344 316 304 319 331 327 331 331 331 331 330 331 333 335 334 333 334 335 336 335 332 329 325 325 326 322
143 143 143 144 147 154 158 151 149 146 144 142 143 142 144 142 146 147 144 148 150 149 146 145 148 167 194 106 121 172 151 134 134 97 107 111 110 115 112 146 170 131 143 279 307 297 283 294 302 313 325 334 338 343 355 1 356 7 339 329 332 341 338 325 324 334 336 335 334 334 336 338 338 336 336 337 336 333 332 330 327 327 331 333 329
147 147 150 150 153 157 164 154 149 148 150 151 147 147 145 144 146 145 148 151 148 148 146 145 146 162 186 236 291 294 316 170 165 148 128 115 109 99 126 154 215 169 140 346 301 292 296 290 289 305 328 331 338 348 3 1 1 343 336 344 342 340 341 345 342 343 339 337 339 340 337 339 338 337 336 334 330 330 330 330 331 335 335 337 336
152 152 154 155 154 158 164 160 152 152 152 151 148 146 150 151 150 157 155 152 152 151 156 149 150 161 178 213 250 275 275 260 245 221 155 137 130 146 181 209 212 219 198 225 253 276 294 302 300 314 316 328 349 355 357 2 346 338 344 344 347 349 350 349 349 342 337 342 343 339 340 337 335 331 330 327 325 328 333 337 339 338 338 337 337
151 156 158 158 157 160 164 162 157 154 156 154 153 154 155 155 157 167 153 155 157 160 170 169 171 177 173 191 218 240 241 267 296 274 230 147 141 173 215 224 242 222 247 266 263 265 275 286 292 298 332 356 355 358 356 343 342 342 344 350 355 356 353 348 343 343 349 346 338 331 332 335 329 321 315 319 324 333 341 339 337 336 336 336 336
154 158 163 165 162 160 163 163 157 156 157 163 162 161 162 166 166 164 163 165 167 166 174 180 178 175 184 189 198 208 223 266 276 291 291 242 245 250 257 244 244 262 260 258 276 288 278 289 327 9 8 0 356 359 341 331 328 337 343 353 358 352 348 347 344 351 343 336 337 334 325 322 327 320 323 331 337 344 344 340 338 342 345 345 344
157 163 166 163 162 164 165 163 158 157 159 162 160 160 162 170 167 167 173 171 171 174 173 178 179 183 187 196 199 211 236 252 268 281 268 267 259 256 280 260 326 349 328 313 332 334 335 348 337 326 310 317 330 315 318 331 338 345 343 344 346 343 336 345 329 325 335 335 330 324 320 321 318 333 342 340 341 343 347 343 342 342 344 344 347
166 166 165 162 164 167 167 162 159 159 165 163 163 166 176 176 174 180 180 177 171 179 177 179 183 186 194 192 189 208 237 251 253 237 235 223 235 251 267 287 338 357 334 333 330 316 314 320 355 21 8 11 357 352 346 342 325 324 336 337 339 336 337 329 333 353 344 326 312 318 327 334 339 338 336 341 343 341 342 346 349 343 345 346 355
166 162 163 164 166 167 164 163 163 161 163 170 174 176 178 181 182 191 198 173 175 173 181 188 190 191 182 178 176 200 220 234 237 208 210 193 186 209 255 280 300 302 283 308 325 359 3 16 19 360 15 347 337 334 333 344 334 326 328 340 343 342 347 359 353 339 333 338 341 335 330 334 335 339 340 341 343 338 342 343 349 349 345 355 356
159 167 164 163 160 162 163 163 163 163 162 162 147 88 15 144 189 186 194 205 200 190 174 185 192 177 180 196 182 175 196 214 215 196 210 206 209 215 219 233 242 253 279 317 189 15 23 4 305 313 308 322 318 313 317 322 329 336 330 332 340 344 345 340 339 334 332 335 329 336 336 336 337 341 341 341 336 339 340 350 344 348 354 354 355
162 163 164 166 164 165 164 162 164 158 159 156 155 154 144 58 38 31 284 202 192 198 205 202 181 178 174 186 222 246 260 255 209 199 199 199 206 207 228 262 278 276 243 107 31 91 290 330 298 299 261 254 261 272 279 300 311 322 316 316 315 330 332 332 332 335 336 335 334 336 337 343 338 336 340 336 335 335 342 348 348 350 358 354 358
143 145 158 158 163 168 167 162 155 154 157 158 159 160 159 151 103 33 41 13 213 201 198 200 189 186 188 180 174 217 237 238 211 198 196 178 179 195 230 253 267 276 272 180 198 271 215 253 281 275 259 288 268 266 268 272 287 291 300 328 322 317 331 323 321 331 325 334 336 336 341 341 337 335 335 336 338 340 344 344 351 349 350 356 0
141 159 169 166 168 168 165 162 162 160 160 162 166 166 163 167 167 144 47 46 52 46 212 200 193 188 188 188 181 180 189 190 189 193 182 168 170 191 230 260 273 279 123 132 209 252 241 224 245 266 262 247 260 258 269 265 270 284 281 284 293 297 302 295 310 316 320 322 326 332 335 336 338 336 337 338 344 341 342 348 348 350 354 355 354
163 172 175 165 166 167 167 165 163 165 161 164 166 168 170 166 162 156 138 115 91 65 54 37 167 193 191 190 189 188 182 182 184 178 175 175 176 186 214 259 322 180 181 225 190 245 243 250 251 251 254 252 258 261 267 271 267 264 283 270 260 272 282 302 328 325 328 329 331 325 334 336 340 342 339 338 339 342 348 347 349 354 350 349 345
159 179 170 160 164 167 167 162 164 161 164 169 170 172 173 172 162 159 161 161 168 168 173 193 220 209 192 192 200 187 173 169 170 174 180 180 177 201 176 91 263 273 313 350 218 239 255 245 252 256 242 250 252 234 249 263 274 274 268 276 282 281 289 307 308 308 318 323 327 332 326 325 331 337 339 336 342 348 346 344 344 347 343 343 345
154 153 164 154 154 164 168 166 165 165 169 178 176 174 165 165 168 172 170 168 167 173 192 198 195 208 213 219 205 189 174 171 176 183 190 183 192 181 261 267 254 251 248 253 231 246 228 247 242 256 249 248 256 256 246 253 258 260 262 258 272 279 283 290 299 309 310 304 303 312 323 326 331 337 336 342 347 340 338 339 337 338 341 341 336
163 161 166 165 158 161 166 159 161 164 164 160 163 165 170 174 176 171 173 174 179 188 187 181 159 172 235 253 219 208 188 177 191 196 191 191 196 193 221 229 244 267 274 269 264 250 255 252 230 246 249 241 247 245 250 252 258 262 269 263 255 273 271 264 271 279 301 309 312 313 312 308 316 329 343 338 336 341 341 341 340 341 344 344 344
159 159 156 151 143 154 154 159 160 156 160 165 174 171 174 180 184 181 177 184 186 186 187 191 189 189 198 224 192 191 185 188 191 241 219 190 194 216 228 233 232 237 259 265 256 253 262 270 251 239 246 232 243 250 247 256 258 258 265 277 278 263 274 277 279 280 275 279 288 294 301 304 311 319 335 341 334 335 338 339 343 343 343 349 1
157 160 158 156 157 158 160 161 161 167 168 174 180 177 183 181 182 184 187 187 186 193 198 187 192 197 214 195 150 150 131 173 207 234 234 232 227 228 226 232 233 243 247 253 267 254 252 265 261 244 250 242 240 245 242 250 258 261 261 267 282 289 293 286 282 274 277 275 281 281 279 286 295 308 308 321 336 336 329 332 341 347 347 343 344
159 159 164 163 164 175 180 172 169 174 177 179 185 184 178 185 187 186 184 177 189 194 199 197 204 215 208 152 158 140 174 206 213 222 228 241 241 235 218 232 236 237 243 250 248 247 248 252 255 253 249 244 237 244 241 243 249 255 263 259 260 278 273 270 273 272 270 265 272 282 288 289 288 296 303 304 311 319 331 334 331 333 339 338 336
156 158 161 167 163 161 172 165 171 181 174 181 179 180 193 193 192 188 181 185 186 191 202 211 213 225 194 198 183 177 188 202 212 217 221 228 235 234 226 228 229 237 238 240 247 245 240 248 252 246 247 246 242 239 245 242 249 256 259 260 260 260 271 274 268 271 274 277 274 281 284 286 288 299 312 306 309 320 319 319 331 339 338 344 345
161 154 149 155 168 177 168 171 184 181 176 177 179 192 193 195 193 187 187 189 190 194 204 220 232 234 226 203 190 192 201 223 213 220 234 234 239 240 234 233 227 226 231 231 233 237 238 239 247 244 244 246 241 242 241 248 246 244 250 256 258 263 270 271 268 272 277 278 278 273 274 279 284 276 267 283 304 315 323 334 333 333 341 344 346
163 163 161 163 172 180 185 184 172 172 167 178 201 201 200 191 193 190 191 198 197 195 202 219 237 242 241 219 199 192 211 224 224 226 233 238 237 242 242 240 233 226 227 236 235 231 234 236 244 240 235 239 232 229 226 232 230 232 238 244 250 254 259 268 275 270 265 269 270 271 271 276 280 285 289 286 287 297 305 318 329 338 337 341 343
159 160 160 165 175 181 187 178 166 167 174 193 196 189 189 195 199 191 192 201 204 207 210 220 229 229 240 218 174 184 209 216 221 226 230 234 237 239 241 242 241 237 236 238 241 230 230 237 244 250 246 247 244 238 235 238 223 222 229 234 244 249 252 256 258 258 252 256 264 269 273 273 274 278 285 285 285 312 311 323 325 329 332 335 342
159 162 163 165 172 172 170 161 165 175 188 189 188 194 195 198 201 200 198 205 211 210 216 223 227 226 232 204 186 196 206 210 216 222 228 229 231 237 240 244 239 238 240 245 241 227 230 237 241 250 260 256 248 242 242 240 228 225 225 220 228 243 246 241 239 235 217 224 249 262 266 267 275 276 277 279 275 272 295 294 296 312 325 335 346
161 161 160 163 166 175 171 163 163 166 175 181 193 203 202 202 206 200 202 211 211 211 216 222 225 224 224 215 205 204 210 210 217 220 227 231 232 239 240 239 240 239 240 247 249 230 229 230 235 240 247 258 261 253 245 246 242 235 232 224 226 235 240 240 233 214 211 216 231 240 253 262 266 265 266 275 279 265 265 279 276 257 265 287 303
162 164 162 159 163 171 179 171 166 181 191 195 202 200 199 203 203 203 206 210 210 211 213 219 216 220 219 217 207 211 209 207 216 216 220 225 228 235 241 241 241 247 249 247 248 244 240 238 238 240 248 255 262 263 260 252 247 245 239 236 237 243 250 242 226 222 227 222 217 221 235 244 261 268 274 275 282 279 279 282 278 286 283 274 277
165 165 167 166 164 173 184 175 191 197 202 201 203 205 205 204 202 206 206 208 208 209 212 216 214 216 211 215 213 211 207 213 219 223 228 232 235 237 240 240 238 242 250 261 259 251 246 247 249 247 248 253 253 257 260 260 257 253 251 242 239 239 245 242 233 233 231 225 213 215 220 234 247 256 261 265 267 275 287 287 291 289 284 286 283
166 168 169 173 178 179 177 181 193 200 209 207 204 207 206 203 205 205 204 204 204 205 204 207 211 209 210 217 210 213 215 214 223 232 232 237 238 241 238 240 243 249 250 258 262 259 254 246 244 242 245 247 245 245 251 255 258 258 253 251 246 244 246 243 237 242 232 225 224 218 218 222 238 248 253 255 260 259 262 273 275 278 286 284 285
169 168 170 174 178 184 177 184 193 204 206 206 203 210 204 203 204 207 206 206 210 215 219 218 216 208 206 214 214 218 211 215 225 230 234 237 239 241 242 240 243 244 242 246 256 259 258 253 250 248 247 248 248 246 244 248 252 254 253 253 253 251 249 244 238 242 239 228 226 219 217 223 229 239 245 247 252 257 260 262 265 268 273 281 280
165 168 169 170 176 184 185 192 200 205 201 203 207 209 206 204 208 206 202 202 209 215 217 215 218 214 214 215 215 212 213 222 226 231 235 241 242 242 240 241 242 245 247 247 254 258 258 257 253 248 244 245 246 246 243 244 247 250 251 253 257 258 256 250 247 246 234 229 230 223 218 225 230 236 243 244 240 243 248 252 259 261 263 263 269